Location: Peterborough
(44.3091°N, 78.3197°W)
Time: 16:51:19
(UTC-04:00)

Transit 2A Rocket - Pass Details

Date: 30 March 2023
Orbit: 584 x 914 km, 66.7° (Epoch: 04 June)

Event Time Altitude Azimuth Distance (km) Brightness Sun altitude
Rises 14:12:45 0° 287° (WNW) 3,423 8.4 47.8°
Reaches altitude 10° 14:17:20 10° 320° (NW) 2,553 7.6 47.5°
Maximum altitude 14:19:12 11° 338° (NNW) 2,472 7.5 47.4°
Drops below altitude 10° 14:21:05 10° 357° (N) 2,590 7.5 47.2°
Sets 14:25:51 0° 29° (NNE) 3,557 8.0 46.9°
